COSMOS 2014

Satellite information

Favourite Embed

Satellite Type and Status

PAYLOADIN ORBIT

Key statistics

Satellite COSMOS 2014 at a glance.

Uptime

13196

Days in orbit

Revolutions

≈ 12.5

Per day

Orbit

LEO

Low Earth Orbit

Inclination

74.0

Latest

Satellite identification and parameters

Extended collection of information and parameters for COSMOS 2014.

Object identification

Identified? True

Debris? False

Object name: COSMOS 2014

International designator: 1989-025G

Object number (NORAD): 19908

Object ID (CCSDS): 19908

Country: COMMONWEALTH OF INDEPENDENT STATES (CIS)

Current information (Y/N): Y

RCS size: MEDIUM

Orbital parameters

Period: 115.544 minutes

Inclination: 74.01 deg

SMA: 7858.218 km

Apoapsis: 1489.818 km

Periapsis: 1470.349 km

RAAN: 243.1229 deg

Eccentricy: 0.0012388

Argument of periapsis: 25.0049 deg

Mean anomaly: 90.4123 deg

Mean motion: 12.46282832 rev/day

Mean motion (dot): -0.00000025 rev/day2

B* drag term: -0.000065964 1/REarth

Two-line elements (TLE)

Creation date: May 10, 2025, 2:32 a.m.

Reference frame: TEME

Reference center: EARTH

Epoch: May 9, 2025, 6:56 p.m. UTC

TLE line 0: 0 COSMOS 2014

TLE line 1: 1 19908U 89025G 25129.78923502 -.00000025 00000-0 -65964-4 0 9999

TLE line 2: 2 19908 74.0100 243.1229 0012388 25.0049 90.4123 12.46282832643589

Live tracking on map

Real-time ground track for satellite COSMOS 2014.

In-orbit conjunctions

A list of the most updated potential collisions computed for object COSMOS 2014.

Target Orbit TCA Probability of collision Miss distance Type
THORAD DELTA 1 DEB SSO 2025-03-28 00:13:19 0.0002886677 895.0 (m) DEBRIS
COSMOS 1823 DEB LEO 2024-11-19 00:18:20 0.0002566656 322.0 (m) DEBRIS
COSMOS 1156 LEO 2024-11-18 00:16:32 0.001530035 97.0 (m) PAYLOAD
DELTA 1 DEB SSO 2024-07-08 01:55:39 0.0001719136 87.0 (m) DEBRIS

Associated space launch

Military communications satellites

COSMOS 2014 was lifted into orbit during the mission ‘Kosmos-3M | Strela-1M 337-344’, on board a Kosmos-3M space rocket.

The launch took place on March 24, 1989, 1:38 p.m. from 132/2.

For more information about the launch, click the button.

Launch to space Kosmos-3M | Strela-1M 337-344
Kosmos-3M | Strela-1M 337-344

Agency: N/A

Status: Launch Successful

Launch date: March 24, 1989, 1:38 p.m. UTC

Rocket: Kosmos-3M

Launch pad: 132/2

Location: Plesetsk Cosmodrome, Russian Federation

...

Latest news about this satellite

There are no fresh news available about this satellite. Check back as we update our databases every day.


Newsletter sign-up

Weekly statistics, charts and insights to help you stay on top of the space industry.